This is the latest recevied weather packets stored in our database for station/object W5ITZ. If no packets are shown the sender has not sent any weather packets the latest 10 day(s).
| Time | Temp. | Humidity | Pressure | Rain* | Wind** | Luminosity | Snow |
|---|---|---|---|---|---|---|---|
| 1778007413 | 27.22° C | 77% | 1008.6 hPa | 0 mm | - | 101 W/m² | - |
| 1778007110 | 27.22° C | 78% | 1008.9 hPa | 0 mm | - | 324 W/m² | - |
| 1778006806 | 27.22° C | 78% | 1009 hPa | 0 mm | - | 212 W/m² | - |
| 1778006503 | 27.22° C | 78% | 1009.1 hPa | 0 mm | - | 153 W/m² | - |
| 1778006200 | 27.22° C | 78% | 1008.8 hPa | 0 mm | - | 208 W/m² | - |
| 1778005898 | 26.67° C | 79% | 1009 hPa | 0 mm | - | 300 W/m² | - |
| 1778005593 | 27.22° C | 78% | 1009 hPa | 0 mm | - | 145 W/m² | - |
| 1778005291 | 27.22° C | 78% | 1008.9 hPa | 0 mm | - | 167 W/m² | - |
| 1778004987 | 26.67° C | 78% | 1009 hPa | 0 mm | - | 224 W/m² | - |
| 1778004684 | 26.67° C | 79% | 1009.1 hPa | 0 mm | - | 177 W/m² | - |
| 1778004380 | 27.22° C | 79% | 1009.4 hPa | 0 mm | - | 129 W/m² | - |
| 1778004078 | 26.67° C | 80% | 1009.3 hPa | 0 mm | - | 293 W/m² | - |
| 1778003774 | 26.67° C | 80% | 1009.2 hPa | 0 mm | - | 205 W/m² | - |
| 1778003470 | 26.67° C | 81% | 1009.3 hPa | 0 mm | - | 226 W/m² | - |
| 1778003167 | 26.67° C | 81% | 1009.4 hPa | 0 mm | - | 227 W/m² | - |
| 1778002863 | 26.67° C | 81% | 1009.6 hPa | 0 mm | - | 155 W/m² | - |
| 1778002560 | 26.67° C | 81% | 1009.4 hPa | 0 mm | - | 281 W/m² | - |
| 1778002257 | 26.67° C | 81% | 1009.4 hPa | 0 mm | - | 167 W/m² | - |
| 1778001954 | 26.67° C | 81% | 1009.3 hPa | 0 mm | - | 119 W/m² | - |
| 1778001651 | 26.67° C | 81% | 1009.5 hPa | 0 mm | - | 289 W/m² | - |
| 1778001346 | 26.67° C | 82% | 1009.5 hPa | 0 mm | - | 238 W/m² | - |
| 1778001043 | 26.11° C | 83% | 1009.7 hPa | 0 mm | - | 313 W/m² | - |
| 1778000740 | 26.67° C | 83% | 1009.6 hPa | 0 mm | - | 160 W/m² | - |
| 1778000436 | 26.67° C | 82% | 1009.4 hPa | 0 mm | - | 88 W/m² | - |
| 1778000131 | 26.67° C | 82% | 1009.5 hPa | 0 mm | - | 303 W/m² | - |
* Rain latest hour (hover to see other rain measurements)
** Current wind speed in m/s (hover to see current wind gust speed)